Content
SEND FEEDBACK

Daily
Averages
Monthly
Summary
United States of America

BLACK HAWK, SOUTH DAKOTA


Home > North America > United States > South Dakota
Elevation: 3352 feet     Latitude: 44 05N     Longitude: 103 16W

WEATHER
 
SELECT A DAY
Number of Records: 203,950;   Date Range: 1/1/95 - 7/20/14
 
SHARE

PRINT THIS DATA

[ ← Previous Day ]
WEATHER ALMANAC - FEBRUARY 14, 2013
[ Next Day → ]
[ °C ]   °F
Weather ElementAverageHighLow
Temperature28 °F32.9 °F (3:55 am)13.6 °F (9:55 pm)
Dewpoint18.5 °F24.8 °F (2:16 pm)7.5 °F (11:55 pm)
Humidity68.2 %86 % (2:15 pm)49 % (3:55 am)
Barometer30.25 in30.40 in (9:55 pm)30.01 in (2:55 am)
Wind Speed24.8 mph40.3 mph (5:55 am)
Wind Gust48.3 mph (8:55 am)
Weather ElementAverage
Visibility8.3 mi
Wind DirectionNW (319.8 °)

Weather ElementTotal
Precipitation---
Heating Degree Days41.8 (Base 65)
Averaged from 46 records on February 14, 2013
WEATHER CONDITIONS BREAKOUT
WIND DIRECTION BREAKOUT
WEATHER BY HOUR - FEBRUARY 14, 2013
[ °C ]   °F
Local TimeTemperatureDewpointHumidityBarometerVisibilityWind DirectionWind SpeedGust SpeedPrecipitationEventsConditions
1:55 AM30.6 °F22.6 °F72 %30.02 in10.0 miNW (310°)24.2 mph36.8 mphScattered Clouds
2:55 AM31.6 °F18.1 °F57 %30.01 in10.0 miWest (280°)19.6 mphScattered Clouds
3:55 AM32.9 °F15.8 °F49 %30.01 in10.0 miNW (320°)19.6 mphScattered Clouds
4:55 AM32.4 °F16.5 °F52 %30.03 in10.0 miNNW (330°)25.3 mph33.4 mphMostly Cloudy
5:55 AM30.7 °F15.3 °F53 %30.04 in10.0 miNW (320°)40.3 mph46.0 mphMostly Cloudy
6:16 AM32.0 °F15.8 °F51 %30.06 in10.0 miNW (320°)38.0 mph44.9 mphOvercast
6:55 AM29.3 °F16.0 °F58 %30.10 in10.0 miNW (320°)31.1 mph38.0 mph0.00 inMostly Cloudy
7:55 AM30.0 °F15.8 °F56 %30.13 in10.0 miNW (310°)34.5 mph47.2 mphScattered Clouds
8:55 AM29.5 °F19.9 °F68 %30.18 in10.0 miNNW (330°)35.7 mph48.3 mphSnowLight Snow
9:09 AM28.4 °F19.4 °F69 %30.20 in10.0 miNNW (330°)35.7 mph46.0 mphMostly Cloudy
9:32 AM28.4 °F19.4 °F69 %30.22 in5.0 miNNW (340°)35.7 mph42.6 mphSnowLight Snow Grains
9:54 AM28.4 °F19.4 °F69 %30.23 in10.0 miNNW (340°)28.8 mph40.3 mphOvercast
9:55 AM29.1 °F19.6 °F68 %30.23 in10.0 miNNW (340°)28.8 mph40.3 mph0.00 inOvercast
10:55 AM28.9 °F19.8 °F69 %30.26 in6.0 miNNW (330°)29.9 mph40.3 mph0.00 inSnowLight Snow
11:03 AM30.2 °F19.4 °F64 %30.26 in5.0 miNNW (340°)25.3 mph36.8 mphSnowLight Snow
11:26 AM30.2 °F19.4 °F64 %30.27 in10.0 miNNW (340°)25.3 mph33.4 mphSnowLight Snow
11:37 AM30.2 °F19.4 °F64 %30.27 in4.0 miNNW (330°)25.3 mph36.8 mphSnowLight Snow
11:55 AM28.8 °F20.7 °F72 %30.27 in4.0 miNNW (340°)26.5 mph36.8 mph0.00 inSnowLight Snow
12:25 PM30.2 °F19.4 °F64 %30.27 in10.0 miNNW (330°)25.3 mph32.2 mphOvercast
12:39 PM32.0 °F19.4 °F60 %30.26 in10.0 miNorth (350°)27.6 mph35.7 mphSnowLight Snow
12:55 PM30.0 °F20.8 °F69 %30.27 in10.0 miNW (320°)25.3 mph35.7 mph0.00 inSnowLight Snow
12:56 PM30.2 °F21.2 °F69 %30.27 in10.0 miNW (320°)25.3 mph35.7 mphOvercast
1:07 PM32.0 °F21.2 °F64 %30.26 in10.0 miNW (320°)35.7 mph41.4 mphSnowLight Snow
1:12 PM32.0 °F21.2 °F64 %30.27 in10.0 miNW (320°)33.4 mph43.7 mphOvercast
1:14 PM30.2 °F21.2 °F69 %30.27 in10.0 miNW (320°)29.9 mph43.7 mphSnowLight Snow
1:16 PM30.2 °F21.2 °F69 %30.27 in10.0 miNW (320°)31.1 mph43.7 mphSnowLight Snow
1:33 PM28.4 °F21.2 °F74 %30.28 in4.0 miNW (320°)28.8 mph36.8 mphSnowLight Snow
1:46 PM28.4 °F23.0 °F80 %30.30 in3.0 miNW (320°)27.6 mph34.5 mphSnowLight Snow
1:55 PM29.3 °F21.9 °F74 %30.29 in4.0 miNW (320°)33.4 mph0.00 inSnowLight Snow
2:15 PM26.6 °F23.0 °F86 %30.32 in3.0 miNNW (340°)21.9 mph27.6 mphSnowLight Snow
2:16 PM28.4 °F24.8 °F86 %30.32 in3.0 miNNW (340°)23.0 mph28.8 mphSnowLight Snow
2:22 PM28.4 °F24.8 °F86 %30.31 in5.0 miNorth (360°)23.0 mph28.8 mphSnowLight Snow
2:55 PM28.6 °F20.5 °F72 %30.30 in10.0 miNW (320°)27.6 mph36.8 mph0.00 inSnowLight Snow
3:00 PM30.2 °F19.4 °F64 %30.31 in10.0 miNNW (330°)24.2 mph34.5 mphMostly Cloudy
3:08 PM30.2 °F21.2 °F69 %30.31 in8.0 miNNW (340°)27.6 mph33.4 mphSnowLight Snow
3:23 PM26.6 °F21.2 °F80 %30.33 in3.0 miNNW (340°)24.2 mph29.9 mphSnowLight Snow
3:33 PM26.6 °F21.2 °F80 %30.32 in3.0 miNorth (350°)21.9 mph25.3 mphSnowLight Snow
3:55 PM28.2 °F20.5 °F73 %30.34 in10.0 miNorth (350°)17.3 mph0.00 inOvercast
4:55 PM26.2 °F17.8 °F70 %30.35 in10.0 miNNW (340°)15.0 mphScattered Clouds
5:55 PM23.5 °F12.6 °F63 %30.38 in10.0 miNW (320°)12.7 mphMostly Cloudy
6:55 PM20.8 °F12.2 °F69 %30.38 in10.0 miNNW (330°)12.7 mphClear
7:55 PM22.6 °F12.4 °F65 %30.38 in10.0 miNNW (340°)13.8 mphClear
8:55 PM20.3 °F12.6 °F72 %30.38 in10.0 miNW (320°)12.7 mphClear
9:55 PM13.6 °F8.6 °F80 %30.40 in10.0 miWest (260°)5.8 mphClear
10:55 PM15.8 °F8.4 °F73 %30.40 in10.0 miCalmClear
11:55 PM16.0 °F7.5 °F69 %30.39 in10.0 miWNW (300°)4.6 mphClear
Hourly data recorded from KRCA, located miles away from Black Hawk, South Dakota







STORIES FROM OUR PARTNERS